TimePST,TemperatureF,Dew PointF,Humidity,Sea Level PressureIn,VisibilityMPH,Wind Direction,Wind SpeedMPH,Gust SpeedMPH,PrecipitationIn,Events,Conditions,WindDirDegrees,DateUTC
12:53 AM,39.0,36.0,89,30.29,10.0,ESE,5.8,-,N/A,,Clear,120,2012-11-11 08:53:00
1:53 AM,39.0,35.1,86,30.29,10.0,ESE,5.8,-,N/A,,Clear,110,2012-11-11 09:53:00
2:53 AM,37.9,35.1,89,30.29,10.0,ESE,5.8,-,N/A,,Clear,110,2012-11-11 10:53:00
3:53 AM,36.0,34.0,93,30.30,10.0,Calm,Calm,-,N/A,,Clear,0,2012-11-11 11:53:00
4:53 AM,37.9,34.0,86,30.31,10.0,ESE,4.6,-,N/A,,Clear,110,2012-11-11 12:53:00
5:53 AM,39.0,35.1,86,30.32,10.0,ESE,5.8,-,N/A,,Overcast,110,2012-11-11 13:53:00
6:53 AM,39.9,35.1,83,30.33,10.0,East,8.1,-,N/A,,Overcast,100,2012-11-11 14:53:00
7:53 AM,42.1,35.1,76,30.34,10.0,East,5.8,-,N/A,,Overcast,100,2012-11-11 15:53:00
8:53 AM,44.1,36.0,73,30.35,10.0,East,3.5,-,N/A,,Overcast,80,2012-11-11 16:53:00
9:53 AM,46.0,37.0,71,30.36,10.0,NE,8.1,-,N/A,,Overcast,50,2012-11-11 17:53:00
10:53 AM,51.1,37.0,59,30.37,10.0,North,-9999.0,-,N/A,,Mostly Cloudy,0,2012-11-11 18:53:00
11:53 AM,53.1,36.0,52,30.35,10.0,SE,4.6,-,N/A,,Scattered Clouds,130,2012-11-11 19:53:00
12:53 PM,55.0,36.0,49,30.34,10.0,SSE,5.8,-,N/A,,Partly Cloudy,150,2012-11-11 20:53:00
1:53 PM,55.9,35.1,45,30.33,10.0,SSW,9.2,-,N/A,,Mostly Cloudy,200,2012-11-11 21:53:00
2:53 PM,55.9,35.1,45,30.32,10.0,SSW,9.2,-,N/A,,Clear,200,2012-11-11 22:53:00
3:53 PM,55.9,37.9,51,30.32,10.0,SSE,4.6,-,N/A,,Partly Cloudy,150,2012-11-11 23:53:00
4:53 PM,52.0,43.0,71,30.32,10.0,Calm,Calm,-,N/A,,Clear,0,2012-11-12 00:53:00
5:53 PM,50.0,44.1,80,30.34,10.0,SE,3.5,-,N/A,,Overcast,140,2012-11-12 01:53:00
6:53 PM,48.9,44.1,83,30.33,10.0,Calm,Calm,-,N/A,,Overcast,0,2012-11-12 02:53:00
7:53 PM,48.9,42.1,77,30.34,10.0,Calm,Calm,-,N/A,,Overcast,0,2012-11-12 03:53:00
8:53 PM,51.1,39.0,63,30.34,10.0,SE,6.9,-,N/A,,Overcast,140,2012-11-12 04:53:00
9:53 PM,50.0,41.0,71,30.35,10.0,South,5.8,-,N/A,,Overcast,180,2012-11-12 05:53:00
10:53 PM,51.1,39.9,66,30.35,10.0,SSE,4.6,-,N/A,,Overcast,150,2012-11-12 06:53:00
11:53 PM,51.1,37.9,61,30.34,10.0,SE,6.9,-,N/A,,Mostly Cloudy,140,2012-11-12 07:53:00